[[{"header":{"parameterUnit":"m.s-1","parameterCategory":1,"la1":30.2991,"la2":30.254,"lo1":-89.0895,"lo2":-89.0444,"dy":0.0017,"dx":0.0017,"nx":28,"ny":28,"refTime":"2024-05-17T21:00:00:Z","depth":0,"parameterNumber":2,"parameterNumberName":"U-component_of_WINDS"},"data":[0,0,0,0,0,0,0,0,0,0,0,0,0,0,0,0,0,0,0,0,0,0,0,0,0,0,0,0,0,0,0,0,0,0,0,0,0,0,0,0,0,0,0,0,0,0,0,0,0,0,0,0,0,0,0,0,0,0,0.0845,0.0845,0,0.0803,0.0802,0.0802,0.0764,0.0763,0.0763,0.0762,0.0719,0.0718,0.0717,0,0,0,0,0,0,0,0,0,0,0,0,0,0.0894,0.0894,0.0845,0.0845,0.0844,0.0803,0.0802,0.0802,0.0764,0.0763,0.0763,0.0762,0.0719,0.0718,0.0717,0,0,0,0,0,0,0,0,0,0,0,0,0,0.0864,0.0893,0.0845,0.082,0.0818,0.0803,0.0802,0.0801,0.0764,0.0763,0.0763,0.0762,0.0719,0.0718,0.0717,0.0724,0,0,0.0714,0.0713,0,0,0,0,0,0,0,0,0.0866,0.0863,0.0825,0.0822,0.0819,0.0788,0.0803,0.0775,0.0764,0.0784,0.0762,0.0762,0.0742,0.0739,0.0733,0.0722,0.072,0.0714,0.0713,0.0713,0.0712,0,0,0,0,0,0,0,0.0868,0.0864,0.0828,0.0824,0.0821,0.0811,0.0806,0.0798,0.0768,0.0783,0.078,0.0775,0.0741,0.0734,0.0732,0.0719,0.0714,0.0713,0.0712,0.0712,0.0711,0.0712,0,0,0,0,0,0,0.0874,0.0866,0.083,0.0827,0.0842,0.0811,0.0805,0.0799,0.0768,0.0762,0.0776,0.0774,0.0736,0.0733,0.073,0.0735,0.0713,0.0712,0.0711,0.071,0.0711,0.0712,0,0,0,0,0,0,0.0875,0.0871,0.0832,0.0846,0.084,0.0811,0.0803,0.0798,0.0791,0.0762,0.0757,0.0774,0.0736,0.0731,0.0725,0.0733,0.0711,0.071,0.071,0.0711,0.0711,0.0747,0,0,0,0,0,0,0.0877,0.0872,0.0874,0.0846,0.084,0.0828,0.0804,0.0798,0.0789,0.0786,0.076,0.0755,0.0735,0.0727,0.0724,0.0731,0.0709,0.0709,0.071,0.0711,0.0745,0.0749,0.0752,0,0,0,0,0,0.0879,0.0886,0.0874,0.087,0.0842,0.0829,0.0825,0.0801,0.079,0.0792,0.0774,0.0756,0.0733,0.0727,0.0723,0.073,0.0708,0.071,0.0711,0.0743,0.0748,0.0752,0,0,0,0,0,0,0.0915,0.0882,0.0869,0.0867,0.0851,0.0822,0.0824,0.0807,0.0794,0.0792,0.0763,0.0758,0.0755,0.0742,0.0736,0.0735,0.0718,0.0719,0.0744,0.0748,0.0752,0.0755,0.0708,0,0,0,0,0,0.0923,0.0915,0.0886,0.0887,0.088,0.0853,0.0847,0.083,0.0813,0.0806,0.0787,0.077,0.0759,0.0753,0.0741,0.0742,0.0736,0.0745,0.0749,0.0752,0.0753,0.0753,0.0757,0.0717,0.0717,0.0717,0,0,0.0939,0.092,0.0917,0.0894,0.088,0.0873,0.0848,0.0841,0.0835,0.0805,0.0798,0.0783,0.0763,0.0761,0.0759,0.075,0.0763,0.0754,0.0757,0.0756,0.0755,0.0759,0.0762,0.0718,0.0717,0.0717,0,0,0.0965,0.0949,0.0949,0.0935,0.0913,0.0896,0.0896,0.0869,0.0858,0.0851,0.0828,0.0821,0.0802,0.0789,0.078,0.08,0.0783,0.0797,0.0817,0.0817,0.082,0.0823,0.083,0.0833,0.0798,0.0798,0.0798,0,0.0988,0.0976,0.095,0.0945,0.0936,0.0907,0.0907,0.0894,0.087,0.0865,0.0855,0.0831,0.0816,0.081,0.0815,0.0808,0.0807,0.08,0.0822,0.0824,0.0826,0.0833,0.0836,0.08,0.08,0.08,0.08,0,0.1005,0.0997,0.0999,0.0976,0.0967,0.0964,0.0938,0.0932,0.0916,0.09,0.0893,0.0873,0.0857,0.0854,0.0839,0.0846,0.0841,0.0827,0.081,0.0832,0.0838,0.0841,0.0803,0.0802,0.0802,0.0801,0,0,0.1053,0.1016,0.1017,0.1007,0.0981,0.0974,0.097,0.0954,0.0949,0.0934,0.0929,0.0914,0.0901,0.0891,0.0873,0.0873,0.0891,0.0859,0.0858,0.0866,0.0898,0.0909,0.0913,0.0879,0.088,0.088,0.09,0,0.1074,0.1065,0.1042,0.1039,0.1032,0.1005,0.1001,0.0984,0.0969,0.096,0.0942,0.0932,0.0915,0.0909,0.0907,0.0889,0.0897,0.0887,0.0875,0.0875,0.0881,0.0916,0.0928,0.0947,0.0902,0.0902,0.0903,0,0.1098,0.1084,0.1081,0.1056,0.1052,0.1049,0.1032,0.1024,0.1005,0.0994,0.0982,0.0963,0.0957,0.094,0.0932,0.0926,0.0919,0.0909,0.091,0.0908,0.0891,0.0915,0.0953,0.0956,0.0906,0.0906,0.0905,0,0.1134,0.1114,0.111,0.1101,0.1072,0.107,0.1058,0.1038,0.103,0.1016,0.101,0.0995,0.0987,0.0976,0.0954,0.0944,0.0947,0.0929,0.0938,0.0939,0.094,0.094,0.0978,0.0936,0.0936,0.0936,0.0936,0,0.116,0.116,0.1125,0.1123,0.1121,0.1094,0.1093,0.1078,0.1061,0.1055,0.1031,0.1025,0.0996,0.0987,0.0969,0.0965,0.0961,0.0952,0.0947,0.0954,0.0956,0.095,0.0948,0.0936,0.0936,0.0936,0.0936,0,0.12,0.1177,0.117,0.1142,0.1135,0.1135,0.1112,0.1108,0.1091,0.1083,0.108,0.1053,0.1042,0.1018,0.1,0.0988,0.0988,0.0979,0.0994,0.0992,0.1001,0.1001,0.1037,0.104,0.0996,0.0996,0.0997,0,0.1218,0.1217,0.1189,0.1184,0.1172,0.1163,0.1155,0.1129,0.1121,0.1099,0.1098,0.1085,0.1073,0.1056,0.1035,0.1021,0.1012,0.1026,0.101,0.1017,0.1013,0.1013,0.1013,0.1029,0.103,0.103,0.1031,0,0.1254,0.1243,0.1232,0.1217,0.1208,0.1194,0.118,0.1177,0.1147,0.114,0.1128,0.1119,0.11,0.1087,0.107,0.1057,0.1039,0.1036,0.1037,0.1044,0.1053,0.1049,0.1004,0.1035,0.1035,0.1035,0.1034,0.1034,0.1284,0.1281,0.1262,0.125,0.1237,0.1224,0.1219,0.1201,0.1191,0.1174,0.1159,0.1149,0.1129,0.1105,0.1093,0.1084,0.1075,0.1077,0.1078,0.1079,0.1082,0.1055,0.1081,0.1081,0.1081,0.1081,0.1081,0,0.1318,0.1304,0.1294,0.1275,0.1266,0.1249,0.1232,0.1226,0.1217,0.1201,0.119,0.1176,0.1163,0.1141,0.1126,0.1124,0.1115,0.1121,0.1121,0.1118,0.109,0.1091,0.1128,0.1128,0.1128,0.1128,0.1128,0.1128,0.1335,0.133,0.1317,0.1305,0.1291,0.128,0.1272,0.126,0.1247,0.1233,0.1223,0.1208,0.1189,0.1173,0.1161,0.1155,0.1151,0.1159,0.115,0.1125,0.112,0.1116,0.1116,0.1159,0.1159,0.1179,0.1179,0.1179]},{"header":{"parameterUnit":"m.s-1","parameterCategory":1,"la1":30.2991,"la2":30.254,"lo1":-89.0895,"lo2":-89.0444,"dy":0.0017,"dx":0.0017,"nx":28,"ny":28,"refTime":"2024-05-17T21:00:00:Z","depth":0,"parameterNumber":3,"parameterNumberName":"V-component_of_WINDS"},"data":[0,0,0,0,0,0,0,0,0,0,0,0,0,0,0,0,0,0,0,0,0,0,0,0,0,0,0,0,0,0,0,0,0,0,0,0,0,0,0,0,0,0,0,0,0,0,0,0,0,0,0,0,0,0,0,0,0,0,4.4408,4.441,0,4.4608,4.461,4.4612,4.4631,4.4629,4.4627,4.4625,4.4831,4.4838,4.4845,0,0,0,0,0,0,0,0,0,0,0,0,0,4.4045,4.4051,4.4408,4.441,4.4413,4.4607,4.461,4.4613,4.4632,4.4629,4.4626,4.4624,4.4828,4.4837,4.4846,0,0,0,0,0,0,0,0,0,0,0,0,0,4.4219,4.4054,4.4407,4.4445,4.4451,4.4607,4.461,4.4614,4.4632,4.4629,4.4626,4.4623,4.4825,4.4836,4.4847,4.4979,0,0,4.4881,4.4886,0,0,0,0,0,0,0,0,4.4209,4.4233,4.4437,4.4443,4.4449,4.4591,4.4558,4.4736,4.4633,4.4563,4.4625,4.4621,4.4754,4.477,4.4815,4.4989,4.4998,4.4882,4.4889,4.4894,4.4897,0,0,0,0,0,0,0,4.4197,4.4224,4.4487,4.444,4.4448,4.4454,4.4475,4.4592,4.4674,4.4569,4.4571,4.4594,4.4756,4.4804,4.482,4.5001,4.4882,4.4892,4.4899,4.4903,4.5296,4.5299,0,0,0,0,0,0,4.4178,4.4214,4.448,4.4493,4.4319,4.4463,4.4486,4.4549,4.4672,4.4688,4.4597,4.4594,4.4787,4.4807,4.4827,4.4992,4.4894,4.4904,4.4911,4.5292,4.5297,4.5301,0,0,0,0,0,0,4.417,4.4201,4.4472,4.4354,4.4389,4.4472,4.4542,4.4554,4.4602,4.4693,4.4708,4.463,4.4785,4.4812,4.4942,4.4999,4.4909,4.4919,4.5288,4.5294,4.5299,4.5321,0,0,0,0,0,0,4.4159,4.4198,4.4248,4.4355,4.4395,4.4583,4.4546,4.4561,4.4621,4.462,4.4729,4.4744,4.4785,4.4925,4.4953,4.5013,4.4928,4.5283,4.529,4.5297,4.5315,4.5327,4.5336,0,0,0,0,0,4.4146,4.4246,4.4251,4.4283,4.4459,4.4586,4.4609,4.4654,4.4626,4.4678,4.4737,4.474,4.4988,4.4938,4.497,4.5034,4.528,4.5288,4.5296,4.5311,4.5324,4.5336,0,0,0,0,0,0,4.4144,4.4261,4.4267,4.4404,4.4485,4.4589,4.4655,4.4666,4.4757,4.4752,4.4803,4.4828,4.4957,4.5008,4.4951,4.517,4.5131,4.5146,4.5131,4.5145,4.5155,4.5141,4.4937,0,0,0,0,0,4.416,4.4252,4.4349,4.4461,4.4501,4.4571,4.4628,4.4656,4.4742,4.4776,4.4844,4.4928,4.5025,4.5088,4.5182,4.5323,4.5348,4.5383,4.5393,4.5401,4.5414,4.5495,4.5512,4.5328,4.5328,4.5328,0,0,4.4193,4.4268,4.4323,4.4463,4.4528,4.4624,4.46,4.4701,4.4774,4.4791,4.4919,4.4972,4.5069,4.5206,4.527,4.5253,4.5471,4.5412,4.5418,4.5426,4.5506,4.5523,4.5538,4.5334,4.5333,4.5332,0,0,4.4302,4.4367,4.4469,4.4535,4.4636,4.4682,4.4706,4.481,4.4846,4.4975,4.4991,4.5078,4.5243,4.5312,4.5369,4.5507,4.5515,4.5537,4.5591,4.5669,4.5684,4.5697,4.5749,4.5766,4.5549,4.5549,4.5549,0,4.433,4.4474,4.4519,4.4622,4.4684,4.4704,4.4809,4.4871,4.4997,4.504,4.502,4.523,4.5296,4.5451,4.5485,4.5529,4.5561,4.5525,4.5678,4.5692,4.5705,4.5754,4.5773,4.5551,4.5551,4.5551,4.555,0,4.4505,4.4605,4.4675,4.4797,4.4867,4.4969,4.5031,4.5097,4.5119,4.5168,4.5301,4.5382,4.5494,4.5532,4.5554,4.5691,4.5678,4.5667,4.563,4.5724,4.5771,4.579,4.5554,4.5553,4.5553,4.5552,0,0,4.4618,4.4764,4.479,4.4846,4.4959,4.5038,4.5143,4.5252,4.5309,4.5395,4.5486,4.5626,4.5618,4.5682,4.5713,4.5781,4.5889,4.5763,4.5766,4.5785,4.6048,4.6056,4.6077,4.5894,4.5898,4.5901,4.604,0,4.4741,4.4927,4.4972,4.5132,4.5226,4.5248,4.534,4.542,4.5469,4.5557,4.5612,4.5712,4.5692,4.5731,4.58,4.5861,4.5943,4.5851,4.5981,4.5985,4.5957,4.6102,4.6111,4.6238,4.6059,4.6062,4.6064,0,4.4909,4.5,4.5169,4.5273,4.5314,4.5395,4.5501,4.5584,4.5677,4.5708,4.5781,4.5806,4.5917,4.5874,4.6029,4.5966,4.6022,4.606,4.6066,4.6081,4.6031,4.6122,4.6279,4.6299,4.6094,4.6091,4.6089,0,4.4976,4.5141,4.5265,4.5312,4.5435,4.5492,4.5546,4.5635,4.57,4.5792,4.5835,4.5939,4.5997,4.6078,4.613,4.6093,4.6283,4.6243,4.6313,4.6312,4.6353,4.635,4.6522,4.6386,4.6386,4.6385,4.6385,0,4.511,4.5213,4.5297,4.5373,4.549,4.5541,4.5656,4.5711,4.5791,4.5879,4.5904,4.5987,4.6051,4.6142,4.6184,4.6308,4.6333,4.6363,4.6373,4.6362,4.6358,4.64,4.6393,4.639,4.6389,4.6388,4.6387,0,4.5204,4.5265,4.5401,4.5507,4.5536,4.5618,4.5709,4.5785,4.5835,4.5947,4.5976,4.6056,4.6166,4.6226,4.6363,4.6392,4.6531,4.6535,4.65,4.6504,4.6572,4.6566,4.6779,4.681,4.6651,4.6653,4.6654,0,4.5286,4.5366,4.5481,4.5542,4.5597,4.5695,4.5761,4.5816,4.5883,4.5996,4.6059,4.617,4.6262,4.6436,4.6507,4.6613,4.6622,4.6689,4.6638,4.6625,4.6625,4.6621,4.663,4.6698,4.67,4.6701,4.6702,0,4.5425,4.5452,4.5545,4.5651,4.5729,4.5814,4.5899,4.5948,4.6017,4.6092,4.6205,4.6276,4.6417,4.6528,4.6641,4.6698,4.6713,4.6718,4.674,4.673,4.6706,4.6722,4.6526,4.6713,4.6712,4.6711,4.671,4.671,4.5518,4.5591,4.5684,4.5788,4.5858,4.5937,4.6014,4.6075,4.617,4.6289,4.6316,4.6435,4.6529,4.6681,4.6741,4.6837,4.6824,4.6855,4.6864,4.6871,4.6875,4.669,4.6857,4.6857,4.6856,4.6856,4.6856,0,4.566,4.5721,4.5817,4.5935,4.6018,4.6024,4.6119,4.6189,4.6293,4.6379,4.6469,4.66,4.6709,4.6789,4.69,4.6961,4.6971,4.6989,4.6985,4.6999,4.6879,4.6849,4.6979,4.6979,4.6979,4.6979,4.6979,4.6979,4.5743,4.5868,4.5906,4.6067,4.6129,4.6246,4.63,4.6374,4.6443,4.6588,4.6678,4.673,4.6814,4.6932,4.7033,4.7054,4.7094,4.7112,4.7134,4.702,4.7007,4.6994,4.6967,4.712,4.712,4.7246,4.7247,4.7248]}]]